Location: *
(46.3500°N, 10.9000°E)
Time: 01:00:41
(UTC+00:00)

X-37B - Pass Details

Date: 16 August 2022
Orbit: 330 x 340 km, 45.0° (Epoch: 02 September)

Event Time Altitude Azimuth Distance (km) Brightness Sun altitude
Exits shadow 03:14:55 16° 221° (SW) 992 2.0 -10.2°
Maximum altitude 03:15:21 17° 209° (SSW) 975 2.1 -10.2°
Drops below altitude 10° 03:17:16 10° 167° (SSE) 1,278 3.0 -9.9°
Sets 03:19:43 0° 145° (SE) 2,114 4.4 -9.5°
